Zurück zum Katalog

IRIDIUM 33 DEB

AktivPO
NORAD 33881·DEBRIS·🇺🇸 United States

Gestartet Sep 14, 1997 von Baikonur Cosmodrome

Loading…

Nächste Überflüge (nächste 24 Stunden)

TLE

AktuellSource: Space-Track

Epoche: Sep 13, 2026, 18:31 UTC

1 33881U 97051BA  26256.77180398  .00005191  00000-0  97978-3 0  9998
2 33881  86.3880 346.4221 0051316 321.2229 165.9313 14.63456353915145

Verfolge IRIDIUM 33 DEB in Echtzeit mit AllMySat

Download on the App Store